(142341) = 1997 CO17 = 2002 RM203

Discovered at Palomar on 2002-09-14 by NEAT.

Orbit

Orbit type: Main Belt

Note: WebGL enabled browser required.

epoch2022-01-21.0
epoch JD2459600.5
perihelion date2020-10-21.27447
perihelion JD2459143.77447
argument of perihelion (°)45.04950
ascending node (°)335.94879
inclination (°)6.65930
eccentricity0.1344242
perihelion distance (AU)2.0134973
Tisserand w.r.t. Jupiter3.6
ΔV w.r.t. Earth (km/sec)9.0
semimajor axis (AU)2.3261941
mean anomaly (°)126.87914
mean daily motion (°/day)0.27780170
aphelion distance (AU)2.639
period (years)3.55
P-vector [x]0.93164516
P-vector [y]0.29212433
P-vector [z]0.21610338
Q-vector [x]-0.36028267
Q-vector [y]0.81997014
Q-vector [z]0.44479812
absolute magnitude16.82
phase slope0.15
uncertainty0
referenceMPO 694175
observations used597
oppositions16
arc length (days)9198
first opposition used1997
last opposition used2022
residual rms (arc-secs)0.78
perturbers coarse indicatorM-v
perturbers precise indicator003Ek
first observation date used1997-02-01.0
last observation date used2022-04-09.0
computer namePan
JD of orbit computation2456639.552638
perihelion JD uncertainty (days)8.7563E-05
argument of perihelion uncertainty (°)6.1749E-05
ascending node uncertainty (°)5.3634E-05
inclination uncertainty (°)6.4679E-06
eccentricity uncertainty 7.4559E-08
perihelion distance uncertainty (AU)1.7221E-07
Minimum Orbit Intersection Distances (in AU)
for orbit epoch: 2459200.5, reference: E2021-B55
Mercury1.6726
Venus1.2976
Earth1.01978
Mars0.60158
Jupiter2.84427
Saturn6.78813
Uranus15.7413
Neptune27.8769

Observations

607 total observations over interval: 1997 02 01.45401 – 2022 04 09.135733
These data are available for download (format description).

Date (UT) J2000 RA J2000 Dec Magn Location Ref
1997 02 01.45401 10 34 28.85 +10 48 39.5 20.6 V 691 – Steward Observatory, Kitt Peak-Spacewatch MPC 29043
1997 02 01.47565 10 34 27.65 +10 48 43.7 20.4 V 691 – Steward Observatory, Kitt Peak-Spacewatch MPC 29043
1997 02 01.51383 10 34 25.59 +10 48 49.1 20.5 V 691 – Steward Observatory, Kitt Peak-Spacewatch MPC 29043
1997 02 06.40695 10 29 52.21 +11 02 45.2 21.9 V 691 – Steward Observatory, Kitt Peak-Spacewatch MPS 80120
1997 02 06.42873 10 29 50.87 +11 02 49.2 21.5 V 691 – Steward Observatory, Kitt Peak-Spacewatch MPS 80120
1997 02 06.45012 10 29 49.63 +11 02 53.0 21.2 V 691 – Steward Observatory, Kitt Peak-Spacewatch MPS 80120
1997 02 11.40967 10 24 47.88 +11 18 22.6 20.4 V 691 – Steward Observatory, Kitt Peak-Spacewatch MPC 29043
1997 02 11.43128 10 24 46.52 +11 18 26.6 20.4 V 691 – Steward Observatory, Kitt Peak-Spacewatch MPC 29043
1997 02 11.45697 10 24 44.87 +11 18 31.3 20.5 V 691 – Steward Observatory, Kitt Peak-Spacewatch MPC 29043
1999 12 12.29593 04 36 50.70 +34 20 37.7 18.7   704 – Lincoln Laboratory ETS, New Mexico MPS 103840
1999 12 12.32076 04 36 48.84 +34 20 30.3 18.6   704 – Lincoln Laboratory ETS, New Mexico MPS 103840
1999 12 12.33856 04 36 47.56 +34 20 25.9 18.8   704 – Lincoln Laboratory ETS, New Mexico MPS 103841
2002 08 12.33707 21 52 31.67 -16 08 15.8 18.1 R 699 – Lowell Observatory-LONEOS MPS 69930
2002 08 12.35106 21 52 30.73 -16 08 17.0   699 – Lowell Observatory-LONEOS MPS 69930
2002 08 12.36509 21 52 29.89 -16 08 17.4   699 – Lowell Observatory-LONEOS MPS 69930
2002 08 12.37914 21 52 28.95 -16 08 21.4   699 – Lowell Observatory-LONEOS MPS 69930
2002 08 18.40775 21 46 03.03 -16 14 53.5 18.9   644 – Palomar Mountain/NEAT MPS 78278
2002 08 18.41834 21 46 02.32 -16 14 54.0 18.8   644 – Palomar Mountain/NEAT MPS 78278
2002 08 18.42913 21 46 01.59 -16 14 54.5 18.8   644 – Palomar Mountain/NEAT MPS 78278
2002 08 29.33138 21 34 35.89 -16 20 17.6 19.0   644 – Palomar Mountain/NEAT MPS 78278
2002 08 29.35405 21 34 34.49 -16 20 17.5 19.0   644 – Palomar Mountain/NEAT MPS 78278
2002 08 29.37536 21 34 33.18 -16 20 17.3 19.1   644 – Palomar Mountain/NEAT MPS 78278
2002 09 04.19589 21 29 07.35 -16 18 17.7 19.5   644 – Palomar Mountain/NEAT MPS 78278
2002 09 04.22639 21 29 05.67 -16 18 16.2 19.7   644 – Palomar Mountain/NEAT MPS 78278
2002 09 04.24786 21 29 04.51 -16 18 15.2 19.7   644 – Palomar Mountain/NEAT MPS 78278
2002 09 04.26046 21 29 03.78 -16 18 15.4 19.3   644 – Palomar Mountain/NEAT MPS 78279
2002 09 04.27780 21 29 02.84 -16 18 13.8 19.5   644 – Palomar Mountain/NEAT MPS 78279
2002 09 04.32268 21 29 00.37 -16 18 12.7 19.2   644 – Palomar Mountain/NEAT MPS 78279
2002 09 05.23290 21 28 13.73 -16 17 32.6 19.5   704 – Lincoln Laboratory ETS, New Mexico MPS 78279
2002 09 05.24704 21 28 12.90 -16 17 32.1 19.7   704 – Lincoln Laboratory ETS, New Mexico MPS 78279
2002 09 05.26116 21 28 12.17 -16 17 30.9 19.7   704 – Lincoln Laboratory ETS, New Mexico MPS 78279
2002 09 14.13238 21 21 49.45 -16 05 33.8 19.7   644 – Palomar Mountain/NEAT MPS 61826
2002 09 14.15332 21 21 48.69 -16 05 31.8 20.0   644 – Palomar Mountain/NEAT MPS 61826
2002 09 14.17411 21 21 47.92 -16 05 29.5 19.7   644 – Palomar Mountain/NEAT MPS 61826
2002 09 15.18630 21 21 13.62 -16 03 29.9 19.6   644 – Palomar Mountain/NEAT MPS 61826
2002 09 15.20729 21 21 12.86 -16 03 27.0 19.6   644 – Palomar Mountain/NEAT MPS 61826
2002 09 15.22826 21 21 12.14 -16 03 24.3 19.7   644 – Palomar Mountain/NEAT MPS 61826
2004 01 22.35249 09 56 07.93 +16 33 42.8 20.2   704 – Lincoln Laboratory ETS, New Mexico MPS 103841
2004 01 22.36601 09 56 07.17 +16 33 45.7 20.9   704 – Lincoln Laboratory ETS, New Mexico MPS 103841
2004 01 22.37872 09 56 06.59 +16 33 48.0 20.5   704 – Lincoln Laboratory ETS, New Mexico MPS 103841
2004 01 22.39165 09 56 05.75 +16 33 48.8 20.0   704 – Lincoln Laboratory ETS, New Mexico MPS 103841
2004 01 22.40459 09 56 05.06 +16 33 51.8 20.6   704 – Lincoln Laboratory ETS, New Mexico MPS 103841
2004 02 12.19520 09 33 59.85 +17 30 34.3 20.0 V 691 – Steward Observatory, Kitt Peak-Spacewatch MPS 103841
2004 02 12.22310 09 33 57.91 +17 30 38.6 20.0 V 691 – Steward Observatory, Kitt Peak-Spacewatch MPS 103841
2004 02 12.25502 09 33 55.68 +17 30 43.3 20.0 V 691 – Steward Observatory, Kitt Peak-Spacewatch MPS 103841
2004 02 23.27206 09 21 59.77 +17 51 52.5 19.9   704 – Lincoln Laboratory ETS, New Mexico MPS 100864
2004 02 23.29750 09 21 58.25 +17 51 54.8 20.4   704 – Lincoln Laboratory ETS, New Mexico MPS 100864
2004 02 23.31144 09 21 57.32 +17 51 56.0 20.4   704 – Lincoln Laboratory ETS, New Mexico MPS 100864
2004 03 01.12558 09 15 34.41 +17 58 36.5 21.3 V 691 – Steward Observatory, Kitt Peak-Spacewatch MPS 100864
2004 03 01.16173 09 15 32.51 +17 58 37.5 21.1 V 691 – Steward Observatory, Kitt Peak-Spacewatch MPS 100864
2004 03 01.23905 09 15 28.37 +17 58 40.8 20.9 V 691 – Steward Observatory, Kitt Peak-Spacewatch MPS 100864
2006 10 19.46954 03 49 32.88 +31 21 34.4 19.1 V 703 – Catalina Sky Survey MPS 182846
2006 10 19.47941 03 49 32.52 +31 21 36.9 19.4 V 703 – Catalina Sky Survey MPS 182846
2006 10 19.48934 03 49 32.23 +31 21 38.4 19.2 V 703 – Catalina Sky Survey MPS 182846
2006 10 19.49920 03 49 31.83 +31 21 39.9 19.2 V 703 – Catalina Sky Survey MPS 182846
2006 10 23.37587 03 47 06.21 +31 33 55.8 19.2 V 703 – Catalina Sky Survey MPS 183982
2006 10 23.38454 03 47 05.92 +31 33 56.9 19.0 V 703 – Catalina Sky Survey MPS 183982
2006 10 23.39318 03 47 05.49 +31 33 58.1 18.7 V 703 – Catalina Sky Survey MPS 183982
2006 10 23.40169 03 47 05.06 +31 34 00.1 19.1 V 703 – Catalina Sky Survey MPS 183982
2006 10 29.35612 03 42 17.85 +31 46 21.0 18.9 V 703 – Catalina Sky Survey MPS 185352
2006 10 29.36260 03 42 17.46 +31 46 21.2 19.0 V 703 – Catalina Sky Survey MPS 185352
2006 10 29.36909 03 42 17.13 +31 46 22.0 18.9 V 703 – Catalina Sky Survey MPS 185352
2006 10 29.37552 03 42 16.74 +31 46 22.5 18.7 V 703 – Catalina Sky Survey MPS 185352
2006 11 02.34362 03 38 29.18 +31 49 51.7 18.6 V G96 – Mt. Lemmon Survey MPS 185352
2006 11 02.34936 03 38 28.82 +31 49 51.9 18.8 V G96 – Mt. Lemmon Survey MPS 185352
2006 11 02.35503 03 38 28.46 +31 49 52.0 18.8 V G96 – Mt. Lemmon Survey MPS 185352
2006 11 02.36063 03 38 28.10 +31 49 51.8 18.6 V G96 – Mt. Lemmon Survey MPS 185352
2006 11 13.30201 03 26 24.07 +31 38 42.1 18.6 V G96 – Mt. Lemmon Survey MPS 186884
2006 11 13.30747 03 26 23.64 +31 38 41.3 18.7 V G96 – Mt. Lemmon Survey MPS 186884
2006 11 13.31319 03 26 23.24 +31 38 40.2 18.6 V G96 – Mt. Lemmon Survey MPS 186884
2006 11 13.31869 03 26 22.84 +31 38 39.4 18.6 V G96 – Mt. Lemmon Survey MPS 186884
2006 11 13.33573 03 26 21.63 +31 38 37.1 19.0 R 644 – Palomar Mountain/NEAT MPS 188523
2006 11 13.35683 03 26 20.10 +31 38 33.8 19.4 R 644 – Palomar Mountain/NEAT MPS 188523
2006 11 13.37802 03 26 18.55 +31 38 31.2 19.4 R 644 – Palomar Mountain/NEAT MPS 188523
2006 11 15.24729 03 24 08.49 +31 33 33.6 18.3 V 703 – Catalina Sky Survey MPS 186884
2006 11 15.25429 03 24 07.92 +31 33 32.5 18.5 V 703 – Catalina Sky Survey MPS 186884
2006 11 15.26131 03 24 07.38 +31 33 32.0 18.3 V 703 – Catalina Sky Survey MPS 186884
2006 11 15.26832 03 24 06.80 +31 33 30.6 18.9 V 703 – Catalina Sky Survey MPS 186884
2006 11 21.22760 03 17 15.75 +31 12 25.9 18.4 V 703 – Catalina Sky Survey MPS 188523
2006 11 21.23420 03 17 15.32 +31 12 24.1 18.8 V 703 – Catalina Sky Survey MPS 188523
2006 11 21.24082 03 17 14.85 +31 12 23.1 18.7 V 703 – Catalina Sky Survey MPS 188523
2006 11 21.24738 03 17 14.38 +31 12 21.0 18.5 V 703 – Catalina Sky Survey MPS 188523
2006 12 14.26819 02 58 06.02 +29 08 25.5 19.2 V 703 – Catalina Sky Survey MPS 195341
2006 12 14.27479 02 58 05.84 +29 08 23.4 19.8 V 703 – Catalina Sky Survey MPS 195341
2006 12 14.28139 02 58 05.62 +29 08 20.9 19.4 V 703 – Catalina Sky Survey MPS 195341
2006 12 14.28798 02 58 05.37 +29 08 18.9 19.0 V 703 – Catalina Sky Survey MPS 195341
2008 01 18.48911 12 53 43.90 -08 20 56.9 21.4 V G96 – Mt. Lemmon Survey MPS 234969
2008 01 18.49425 12 53 43.98 -08 20 58.2 22.1 V G96 – Mt. Lemmon Survey MPS 234969
2008 01 18.49944 12 53 44.16 -08 20 59.6 21.2 V G96 – Mt. Lemmon Survey MPS 234969
2008 01 18.50463 12 53 44.26 -08 21 01.8 22.5 V G96 – Mt. Lemmon Survey MPS 234969
